Simultaneous Nadir Overpasses (SNOs) Predictions

Prediction of SNOs between GOES-16 and NOAA-19 Satellite Orbit:

Table of predicted SNOs for the next 14.0 days since TLE Epoch: 10/16/2023
Index Date Time (GOES-16) GOES-16 Lat,Lon NOAA-19 Lat,Lon Distance(km) Time Diff (sec)
1 10/18/2023 14:02:13 -0.04, -75.22 0.65, -78.19 339.17 80
2 10/19/2023 13:50:07 -0.04, -75.22 -0.03, -75.24 2.73 80
3 10/20/2023 13:40:40 -0.04, -75.22 -0.72, -72.29 333.75 80
4 10/23/2023 01:57:54 0.03, -75.20 -0.40, -77.02 207.46 80
5 10/24/2023 01:45:48 0.03, -75.21 0.30, -74.07 129.54 80
6 10/25/2023 01:33:41 0.03, -75.21 0.99, -71.13 466.74 80
7 10/26/2023 14:05:42 -0.03, -75.24 0.79, -78.81 406.92 80
8 10/27/2023 13:53:35 -0.03, -75.25 0.13, -75.85 69.19 80
9 10/28/2023 13:44:08 -0.03, -75.26 -0.58, -72.91 268.80 80
